Hourly Data Report for June 17, 2003

SHERBROOKE A
QUEBEC

45°26'00.000" N
71°41'00.000" W
241.40 m
7028124
71610
YSC

Download Data

Hourly Data (June 2003)
Hourly Data Report for June 17, 2003
TIME
LST
Temp Definition
°C
Dew Point Definition
°C
Rel Hum Definition
%
Precip. Amount Definition
mm

Wind Dir Definition
10's deg

Wind Spd Definition
km/h
Visibility Definition
km
Stn Press Definition
kPa
Hmdx Definition


Wind Chill Definition


Weather Definition


00:00 7.7 7.0 95     0 15.0 99.51      
01:00 6.8 6.2 96   9 4 15.0 99.52      
02:00 5.8 5.2 96     0 15.0 99.51      
03:00 5.2 4.7 97     0 15.0 99.49      
04:00 5.1 4.8 98     0 15.0 99.48      
05:00 6.9 6.6 98   9 4 15.0 99.48      
06:00 11.5 9.3 86   10 4 15.0 99.49      
07:00 14.4 10.1 75   2 4 24.1 99.48     Clear
08:00 17.4 11.8 70   24 6 24.1 99.46     Clear
09:00 19.3 11.7 61   25 11 24.1 99.38     Clear
10:00 20.7 12.1 58   24 9 24.1 99.29     Clear
11:00 22.6 13.8 58   27 13 24.1 99.24 26   Mainly Clear
12:00 23.4 12.1 49   22 13 24.1 99.16 26   Mainly Clear
13:00 23.1 11.6 48   25 15 24.1 99.08 25   Mainly Clear
14:00 24.6 13.3 49   26 17 24.1 99.00 28   Mainly Clear
15:00 25.2 13.0 47   26 7 24.1 98.93 28   Clear
16:00 25.1 11.3 42   24 19 24.1 98.88 27   Clear
17:00 24.9 11.0 42   25 15 15.0 98.84 27    
18:00 24.0 10.8 43   24 9 15.0 98.81 26    
19:00 21.2 12.4 57   29 7 15.0 98.79      
20:00 16.2 12.7 80     0 15.0 98.78      
21:00 13.9 11.5 85     0 15.0 98.79      
22:00 12.9 11.6 92   9 6 15.0 98.79      
23:00 12.5 11.3 92   9 6 15.0 98.76      

Notes on Data Quality.

Legend

  • E = Estimated
  • M = Missing
  • NA = Not Available*
  • [empty] = Indicates an unobserved value
Date modified: